User: anonymous   Login
Location: New Plymouth
(39.0670°S, 174.0830°E)
Time: 06:37:25
(UTC+12:00)
Language:

Resurs 01 Rocket - Orbit

View from above orbital plane
View from above orbital plane
View from above satellite
View from above satellite

Ground track
Ground track

The orbit data is extracted from the following two-line orbital elements,

1 23343U 94074B   20215.78737830 +.00000009 +00000-0 +86309-5 0  9992
2 23343 097.9957 268.3697 0007041 013.2961 051.5430 14.76831010385463
Epoch (UTC): 02 August 2020 18:53:49
Eccentricity: 0.0007041
inclination: 97.9957°
perigee height: 634 km
apogee height: 644 km
right ascension of ascending node: 268.3697°
argument of perigee: 13.2961°
revolutions per day: 14.76831010
mean anomaly at epoch: 51.5430°
orbit number at epoch: 38546

The dashed part of the orbit path shows where the satellite is in the earth's shadow,  

DLR